Satellite: ISS
Catalog number: 25544
Epoch time: 10178.03972080
Element set: 394
Inclination: 051.6470 deg
RA of node: 180.1781 deg
Eccentricity: 0.0009824
Arg of perigee: 012.9677 deg
Mean anomaly: 028.9811 deg
Mean motion: 15.72002369 rev/day
Decay rate: 6.310e-05 rev/day^2
Epoch rev: 66502
Checksum: 287
/EX
More information about the Keps
mailing list